SCP
0 0 0 0 0 0 0 0 0 0 0 0 0 0 0 0 0 0 0 0 0 -0 0 0 0 0 0 0 0 0 0 0 0 0 0 0 0 0 0 0 0 0 0 0 0
0 0 0 0 0 0 0 0 0 0 0 0 0 0 0 0 0 0 0 0 0 0 0 0 0 0 0 0 0 0 0 0 0 0 0 0 0 0 0 0 0 0 0 0 0
0 0 0 0 0 0 0 0 0 0 0 0 0 0 0 0 0 0 0 0 0 0 0 0 0 0 0 0 0 0 0 0 0 0 0 0 0 0 0 0 0 0 0 0 0
0 0 0 0 0 0 0 0 0 0 0 0 0 0 0 0 0 0 0 0 0 0 0 0 0 0 0 0 0 0 0 0 0 0 0 0 0 0 0 0 0 0 0 0 0
0 0 0 0 0 0 0 0 0 0 0 0 0 0 0 0 0 0 0 0 0 0 0 0 0 0 0 0 0 0 0 0 0 0 0 0 0 0 0 0 0 0 0 0 0
0 0 0 0 0 0 0 0 0 0 0 0 0 0 0 0 0 0 0 0 0 0 0 0 0 0 0 0 0 0 0 0 0 0 0 0 0 0 0 0 0 0 0 0 0
0 0 0 0 0 0 0 0 0 0 0 0 0 0 0 0 0 0 0 0 0 0 0 0 0 0 0 0 0 0 0 0 0 0 0 0 0 0 0 0 0 0 0 0 0
0 0 0 0 0 0 0 0 0 0 0 0 0 0 0 0 0 0 0 0 0 0 0 0 0 0 0 0 0 0 0 0 0 0 0 0 0 0 0 0 0 0 0 0 0
0 0 0 0 0 0 0 0 0 0 0 0 0 0 0 0 0 0 0 0 0 0 0 0 0 0 0 0 0 0 0 0 0 0 0 0 0 0 0 0 0 0 0 0 0
0 0 0 0 0 0 0 0 0 0 0 0 0 0 0 0 0 0 0 0 0 0 0 0 0 0 0 0 0 0 0 0 0 0 0 0 0 0 0 0 0 0 0 0 0
0 0 0 0 0 0 0 0 0 0 0 0 0 0 0 0 0 0 0 0 0 0 0 0 0 0 0 0 0 0 0 0 0 0 0 0 0 0 0 0 0 0 0 0 0
0 0 0 0 0 0 0 0 0 0 0 0 0 0 0 0 0 0 0 0 0 0 0 0 0 0 0 0 0 0 0 0 0 0 0 0 0 0 0 0 0 0 0 0 0
0 0 0 0 0 0 0 0 0 0 0 0 0 0 0 0 0 0 0 0 0 0 0 0 0 0 0 0 0 0 0 0 0 0 0 0 0 0 0 0 0 0 0 0 0
0 0 0 0 0 0 0 0 0 0 0 0 0 0 0 0 0 0 0 0 0 0 0 0 0 0 0 0 0 0 0 0 0 0 0 0 0 0 0 0 0 0 0 0 0
0 0 0 0 0 0 0 0 0 0 0 0 0 0 0 0 0 0 0 0 0 0 0 0 0 0 0 0 0 0 0 0 0 0 0 0 0 0 0 0 0 0 0 0 0
0 0 0 0 0 0 0 0 0 0 0 0 0 0 0 0 0 0 0 0 0 0 0 0 0 0 0 0 0 0 0 0 0 0 0 0 0 0 0 0 0 0 0 0 0
0 0 0 0 0 0 0 0 0 0 0 0 0 0 0 0 0 0 0 0 0 0 0 0 0 0 0 0 0 0 0 0 0 0 0 0 0 0 0 0 0 0 0 0 0
0 0 0 0 0 0 0 0 0 0 0 0 0 0 0 0 0 0 0 0 0 0 0 0 0 0 0 0 0 0 0 0 0 0 0 0 0 0 0 0 0 0 0 0 0
0 0 0 0 0 0 0 0 0 0 0 0 0 0 0 0 0 0 0 0 0 0 0 0 0 0 0 0 0 0 0 0 0 0 0 0 0 0 0 0 0 0 0 0 0
0 0 0 0 0 0 0 0 0 0 0 0 0 0 0 0 0 0 0 0 0 0 0 0 0 0 0 0 0 0 0 0 0 0 0 0 0 0 0 0 0 0 0 0 0
0 0 0 0 0 0 0 0 0 0 0 0 0 0 0 0 0 0 0 0 0 0 0 0 0 0 0 0 0 0 0 0 0 0 0 0 0 0 0 0 0 0 0 0 0
0 0 0 0 0 0 0 0 0 0 0 0 0 0 0 0 0 0 0 0 0 0 0 0 0 0 0 0 0 0 0 0 0 0 0 0 0 0 0 0 0 0 0 0 0
0 0 0 0 0 0 0 0 0 0 0 0 0 0 0 0 0 0 0 0 0 0 0 0 0 0 0 0 0 0 0 0 0 0 0 0 0 0 0 0 0 0 0 0 0
0 0 0 0 0 0 0 0 0 0 0 0 0 0 0 0 0 0 0 0 0 0 0 0 0 0 0 0 0 0 0 0 0 0 0 0 0 0 0 0 0 0 0 0 0
0 0 0 0 0 0 0 0 0 0 0 0 0 0 0 0 0 0 0 0 0 0 0 0 0 0 0 0 0 0 0 0 0 0 0 0 0 0 0 0 0 0 0 0 0
0 0 0 0 0 0 0 0 0 0 0 0 0 0 0 0 0 0 0 0 0 0 0 0 0 0 0 0 0 0 0 0 0 0 0 0 0 0 0 0 0 0 0 0 0
0 0 0 0 0 0 0 0 0 0 0 0 0 0 0 0 0 0 0 0 0 0 0 0 0 0 0 0 0 0 0 0 0 0 0 0 0 0 0 0 0 0 0 0 0
Wind_Speed_500mb
11 13 15 18 21 25 24 25 24 24 20 18 16 14 11 8 5 5 4 12 10 10 8 6 4 2 6 5 6 10 7 4 7 14 8 10 7 9 9 17 18 14 16 13 9
9 13 15 19 20 22 24 23 22 23 22 22 19 16 10 7 5 4 9 12 9 8 7 4 3 7 6 5 4 7 8 9 2 7 5 9 11 13 10 12 15 27 24 15 9
10 12 15 16 16 18 22 21 22 22 23 22 21 17 13 9 1 4 10 10 9 7 5 2 3 5 6 5 10 7 5 6 3 12 13 11 10 7 23 5 9 21 24 17 10
8 10 13 15 15 16 17 17 19 21 20 20 19 17 14 10 4 8 8 7 6 4 2 2 4 4 6 8 6 10 10 7 4 8 11 9 19 13 8 12 24 27 22 15 9
7 7 10 11 13 13 8 10 13 17 19 19 23 22 15 7 1 12 9 7 4 1 0 3 4 4 8 10 7 9 6 15 17 17 21 16 12 17 27 30 28 26 20 14 11
11 12 12 11 9 8 6 1 7 11 17 22 26 23 15 5 13 13 10 7 6 4 2 5 5 12 15 11 10 10 20 11 14 13 11 14 13 6 21 32 29 23 20 15 12
8 8 7 9 9 9 12 12 9 10 15 22 26 21 11 7 7 11 9 5 2 2 5 9 12 4 10 11 16 14 9 5 15 9 6 11 2 4 43 36 31 25 20 15 12
8 6 3 6 7 14 18 20 20 20 18 21 20 14 8 1 3 8 5 5 6 7 10 11 15 15 10 27 10 8 7 4 6 7 3 4 8 5 46 40 32 26 21 15 11
7 6 1 7 9 13 16 18 20 20 19 19 16 8 6 5 7 10 8 8 10 10 13 13 10 13 12 10 8 11 5 6 5 4 2 5 3 14 41 36 33 30 25 18 12
6 5 0 8 10 13 15 15 17 15 13 13 10 5 5 6 11 11 10 10 9 16 14 7 11 8 8 7 10 10 7 6 6 4 3 3 11 11 41 41 41 37 31 24 17
4 4 3 8 12 13 13 13 10 3 12 15 9 11 8 8 10 8 9 12 15 12 9 11 9 4 2 4 4 9 4 2 2 5 3 11 13 15 38 42 40 40 38 32 24
3 4 3 6 13 13 15 6 5 13 23 19 14 12 11 6 4 9 7 4 7 7 5 10 3 2 2 6 6 4 4 4 3 3 0 8 20 18 33 37 58 51 46 40 33
3 3 3 8 14 13 14 8 12 13 12 12 15 10 9 8 8 12 8 8 12 8 9 7 1 4 3 5 5 4 4 4 2 4 1 10 15 10 14 35 54 55 52 46 41
3 2 2 9 11 16 11 10 11 7 9 9 10 10 8 6 11 13 11 6 12 8 6 10 4 2 5 6 4 5 1 4 4 3 7 5 11 10 11 18 23 62 65 56 49
4 3 5 11 7 16 13 16 11 5 8 4 7 4 11 10 2 13 16 6 8 7 6 3 3 5 5 3 5 2 2 5 4 6 4 1 1 14 6 14 35 52 71 66 56
3 3 5 9 11 12 22 13 6 13 9 6 6 8 4 9 6 5 6 12 12 7 10 5 4 5 5 5 4 9 7 8 6 5 4 4 7 11 11 15 9 40 71 75 63
2 4 7 10 11 18 23 9 10 9 8 10 2 7 5 9 6 9 6 5 6 9 2 2 2 2 5 8 9 6 8 5 9 7 11 1 2 20 17 16 12 36 65 80 69
4 5 10 11 17 22 22 10 10 5 11 3 3 5 6 10 5 6 4 4 4 8 6 9 9 7 2 3 10 5 9 8 12 5 8 5 13 14 12 7 20 19 56 79 77
7 9 10 16 22 28 9 8 15 14 10 16 6 8 9 5 3 2 7 8 9 8 13 8 2 3 5 3 3 6 6 7 12 3 6 7 16 20 8 15 11 17 32 68 83
11 9 13 18 22 23 8 9 7 7 11 5 9 3 9 7 3 2 5 6 3 4 10 3 6 5 1 3 7 7 5 7 5 1 8 9 12 12 9 8 11 15 37 55 78
11 6 11 20 23 8 7 13 7 7 5 5 9 6 7 9 8 7 6 6 4 7 9 7 8 4 7 10 14 3 2 6 3 7 9 3 12 13 10 8 14 23 32 47 70
9 3 14 25 4 4 5 10 7 8 7 3 7 6 12 10 7 4 9 10 9 13 11 6 9 7 14 2 4 5 11 10 8 10 4 3 19 2 10 13 17 19 25 37 62
9 8 15 26 6 3 5 2 6 7 8 5 5 5 4 10 1 7 7 1 13 6 11 11 2 4 12 8 8 4 9 7 8 5 12 9 16 1 6 13 12 11 21 33 54
11 3 6 12 6 13 9 5 6 7 6 7 8 8 6 4 3 7 7 5 12 5 7 7 5 13 13 11 8 4 5 10 10 7 8 24 17 16 10 10 15 11 19 32 49
13 6 11 5 6 7 7 6 9 9 4 10 2 8 13 8 3 9 3 3 2 4 6 8 9 3 7 6 6 8 9 15 19 16 14 26 22 14 15 15 26 24 23 38 51
12 12 11 8 13 11 4 11 17 8 15 8 9 9 13 14 16 16 13 9 11 3 5 6 4 4 8 3 12 13 8 15 29 16 30 40 50 14 43 35 25 27 26 35 42
21 14 8 4 5 9 9 11 15 19 14 5 15 9 11 18 15 4 8 7 12 17 11 9 11 6 11 8 11 18 21 33 11 10 22 21 42 6 8 17 30 39 39 48 47
Wind_Direction_500mb
266 264 248 247 256 252 249 246 241 243 236 236 236 235 221 212 211 226 271 305 299 293 289 284 259 202 149 129 96 103 59 213 204 160 157 131 109 73 90 111 75 100 122 109 66
263 263 268 274 270 277 266 253 246 239 233 228 225 229 221 204 207 209 313 291 282 287 299 289 244 156 127 116 78 87 146 215 26 1 106 76 106 124 110 98 77 100 110 109 107
292 295 290 283 283 276 273 264 254 242 229 223 216 209 201 180 223 332 328 307 289 277 275 257 165 147 92 87 25 44 117 137 63 110 121 110 87 96 128 75 161 154 127 119 100
313 304 296 293 290 286 273 259 247 236 228 218 213 205 202 196 233 344 347 322 291 292 251 170 161 123 80 93 57 86 58 99 74 116 113 104 123 91 67 117 130 130 124 116 95
330 316 301 301 301 297 285 253 237 232 226 212 202 198 186 190 2 331 329 324 308 245 155 144 128 98 96 92 85 84 118 71 83 102 93 115 86 124 114 132 136 132 129 115 84
355 343 333 332 331 330 339 131 188 200 205 193 189 186 184 137 307 320 330 306 274 243 201 145 113 105 96 60 53 88 98 91 65 77 96 113 133 110 158 150 142 142 133 116 85
2 347 342 351 5 49 75 88 118 149 164 172 176 179 182 183 325 327 339 350 356 184 151 141 133 124 102 93 112 120 80 54 26 25 88 105 63 217 166 163 153 152 141 124 90
360 348 23 57 61 86 87 88 90 94 109 144 156 165 111 159 336 351 358 48 90 108 132 125 124 105 73 113 58 70 66 133 354 4 108 125 253 157 168 169 163 163 156 145 122
354 344 67 105 111 117 101 97 98 101 109 121 138 142 88 63 44 47 67 94 103 108 112 123 127 84 107 88 38 14 211 200 299 22 305 164 239 171 178 182 176 180 177 170 158
349 342 136 147 139 146 125 113 110 108 115 118 125 128 72 25 51 55 86 95 104 117 103 85 58 69 40 79 218 199 214 224 241 354 16 238 253 191 193 195 194 191 189 189 182
329 331 311 172 160 159 157 135 134 100 75 80 61 87 81 79 64 64 107 103 104 83 58 27 76 193 171 67 79 119 149 205 306 346 291 243 263 226 204 208 203 200 199 200 195
281 287 268 201 176 176 174 203 162 141 91 65 69 73 63 51 79 56 86 76 68 71 353 33 96 58 56 55 89 94 125 231 317 345 37 333 270 232 208 216 209 206 206 207 203
260 267 247 201 184 189 197 180 141 133 80 44 47 36 15 28 52 16 42 79 75 71 24 126 113 318 120 46 126 50 187 193 264 320 350 324 278 221 223 212 215 218 220 213 211
272 238 216 174 182 194 193 165 148 158 78 338 359 22 8 64 43 32 49 64 43 121 93 79 326 89 80 82 16 205 118 106 119 83 247 16 282 282 223 224 212 215 216 214 211
301 248 205 194 209 179 174 153 144 138 28 347 360 18 33 69 69 20 28 31 88 110 119 227 68 72 89 39 336 178 140 105 89 99 342 259 359 267 132 235 224 215 213 214 212
295 231 222 198 183 182 159 140 125 45 261 331 322 354 61 36 41 33 65 69 99 80 43 109 64 56 101 59 34 147 75 47 62 74 359 256 164 268 200 215 205 206 213 212 208
215 191 205 205 185 166 162 142 41 121 335 298 352 15 56 19 44 26 18 58 137 67 309 356 113 108 142 90 6 68 65 343 348 8 231 135 142 250 257 228 223 200 206 210 207
177 170 180 190 171 159 156 57 94 252 218 190 107 75 70 357 24 13 60 342 204 114 108 166 304 164 82 121 169 146 139 159 219 218 283 357 240 255 224 267 245 236 222 210 205
177 157 159 155 160 161 159 68 201 198 168 156 91 76 323 353 148 13 197 201 215 165 167 117 279 34 42 74 82 218 189 173 102 85 37 230 286 296 240 265 267 221 206 208 202
176 179 158 154 159 163 78 227 169 188 136 161 147 165 180 251 154 106 189 217 166 139 119 166 13 357 92 95 47 140 194 78 5 224 273 281 281 240 309 309 237 224 211 208 204
176 176 171 155 152 163 160 217 213 197 164 145 175 127 198 191 176 198 242 289 248 126 98 128 115 327 21 207 176 89 287 31 118 151 184 273 263 215 229 324 285 251 235 214 204
187 71 173 162 99 32 144 185 154 160 183 162 107 126 166 155 155 266 222 203 185 156 155 206 133 177 219 313 22 164 194 158 137 245 237 157 267 306 264 291 313 268 230 215 202
193 149 173 179 146 269 295 232 204 145 180 136 157 142 168 177 74 198 212 247 178 155 166 199 269 18 332 348 2 231 208 160 120 110 210 144 267 160 280 293 312 260 223 209 202
182 76 143 189 159 135 145 227 179 200 132 136 137 97 109 172 142 215 220 157 191 192 138 131 87 173 188 202 138 225 250 194 142 136 173 232 298 273 272 276 283 271 227 211 202
188 208 171 211 250 102 78 134 143 190 179 186 85 196 167 149 11 234 155 119 173 208 102 117 200 186 273 230 183 226 185 195 203 207 186 273 227 255 241 251 275 265 234 213 210
189 160 150 112 134 105 353 220 176 177 146 241 180 213 174 165 184 197 146 195 191 68 116 5 232 129 297 282 226 259 185 221 227 237 259 266 275 200 264 265 265 266 237 218 211
204 182 148 146 94 100 218 198 204 156 208 192 179 129 191 231 188 99 154 137 189 151 158 136 137 96 271 337 320 292 206 204 190 204 214 229 252 209 263 235 258 267 246 230 217
Wind_Speed_850mb
11 13 15 18 21 25 24 25 24 24 20 18 16 14 11 8 5 5 4 12 10 10 8 6 4 2 6 5 6 10 7 4 7 14 8 10 7 9 9 17 18 14 16 13 9
9 13 15 19 20 22 24 23 22 23 22 22 19 16 10 7 5 4 9 12 9 8 7 4 3 7 6 5 4 7 8 9 2 7 5 9 11 13 10 12 15 27 24 15 9
10 12 15 16 16 18 22 21 22 22 23 22 21 17 13 9 1 4 10 10 9 7 5 2 3 5 6 5 10 7 5 6 3 12 13 11 10 7 23 5 9 21 24 17 10
8 10 13 15 15 16 17 17 19 21 20 20 19 17 14 10 4 8 8 7 6 4 2 2 4 4 6 8 6 10 10 7 4 8 11 9 19 13 8 12 24 27 22 15 9
7 7 10 11 13 13 8 10 13 17 19 19 23 22 15 7 1 12 9 7 4 1 0 3 4 4 8 10 7 9 6 15 17 17 21 16 12 17 27 30 28 26 20 14 11
11 12 12 11 9 8 6 1 7 11 17 22 26 23 15 5 13 13 10 7 6 4 2 5 5 12 15 11 10 10 20 11 14 13 11 14 13 6 21 32 29 23 20 15 12
8 8 7 9 9 9 12 12 9 10 15 22 26 21 11 7 7 11 9 5 2 2 5 9 12 4 10 11 16 14 9 5 15 9 6 11 2 4 43 36 31 25 20 15 12
8 6 3 6 7 14 18 20 20 20 18 21 20 14 8 1 3 8 5 5 6 7 10 11 15 15 10 27 10 8 7 4 6 7 3 4 8 5 46 40 32 26 21 15 11
7 6 1 7 9 13 16 18 20 20 19 19 16 8 6 5 7 10 8 8 10 10 13 13 10 13 12 10 8 11 5 6 5 4 2 5 3 14 41 36 33 30 25 18 12
6 5 0 8 10 13 15 15 17 15 13 13 10 5 5 6 11 11 10 10 9 16 14 7 11 8 8 7 10 10 7 6 6 4 3 3 11 11 41 41 41 37 31 24 17
4 4 3 8 12 13 13 13 10 3 12 15 9 11 8 8 10 8 9 12 15 12 9 11 9 4 2 4 4 9 4 2 2 5 3 11 13 15 38 42 40 40 38 32 24
3 4 3 6 13 13 15 6 5 13 23 19 14 12 11 6 4 9 7 4 7 7 5 10 3 2 2 6 6 4 4 4 3 3 0 8 20 18 33 37 58 51 46 40 33
3 3 3 8 14 13 14 8 12 13 12 12 15 10 9 8 8 12 8 8 12 8 9 7 1 4 3 5 5 4 4 4 2 4 1 10 15 10 14 35 54 55 52 46 41
3 2 2 9 11 16 11 10 11 7 9 9 10 10 8 6 11 13 11 6 12 8 6 10 4 2 5 6 4 5 1 4 4 3 7 5 11 10 11 18 23 62 65 56 49
4 3 5 11 7 16 13 16 11 5 8 4 7 4 11 10 2 13 16 6 8 7 6 3 3 5 5 3 5 2 2 5 4 6 4 1 1 14 6 14 35 52 71 66 56
3 3 5 9 11 12 22 13 6 13 9 6 6 8 4 9 6 5 6 12 12 7 10 5 4 5 5 5 4 9 7 8 6 5 4 4 7 11 11 15 9 40 71 75 63
2 4 7 10 11 18 23 9 10 9 8 10 2 7 5 9 6 9 6 5 6 9 2 2 2 2 5 8 9 6 8 5 9 7 11 1 2 20 17 16 12 36 65 80 69
4 5 10 11 17 22 22 10 10 5 11 3 3 5 6 10 5 6 4 4 4 8 6 9 9 7 2 3 10 5 9 8 12 5 8 5 13 14 12 7 20 19 56 79 77
7 9 10 16 22 28 9 8 15 14 10 16 6 8 9 5 3 2 7 8 9 8 13 8 2 3 5 3 3 6 6 7 12 3 6 7 16 20 8 15 11 17 32 68 83
11 9 13 18 22 23 8 9 7 7 11 5 9 3 9 7 3 2 5 6 3 4 10 3 6 5 1 3 7 7 5 7 5 1 8 9 12 12 9 8 11 15 37 55 78
11 6 11 20 23 8 7 13 7 7 5 5 9 6 7 9 8 7 6 6 4 7 9 7 8 4 7 10 14 3 2 6 3 7 9 3 12 13 10 8 14 23 32 47 70
9 3 14 25 4 4 5 10 7 8 7 3 7 6 12 10 7 4 9 10 9 13 11 6 9 7 14 2 4 5 11 10 8 10 4 3 19 2 10 13 17 19 25 37 62
9 8 15 26 6 3 5 2 6 7 8 5 5 5 4 10 1 7 7 1 13 6 11 11 2 4 12 8 8 4 9 7 8 5 12 9 16 1 6 13 12 11 21 33 54
11 3 6 12 6 13 9 5 6 7 6 7 8 8 6 4 3 7 7 5 12 5 7 7 5 13 13 11 8 4 5 10 10 7 8 24 17 16 10 10 15 11 19 32 49
13 6 11 5 6 7 7 6 9 9 4 10 2 8 13 8 3 9 3 3 2 4 6 8 9 3 7 6 6 8 9 15 19 16 14 26 22 14 15 15 26 24 23 38 51
12 12 11 8 13 11 4 11 17 8 15 8 9 9 13 14 16 16 13 9 11 3 5 6 4 4 8 3 12 13 8 15 29 16 30 40 50 14 43 35 25 27 26 35 42
21 14 8 4 5 9 9 11 15 19 14 5 15 9 11 18 15 4 8 7 12 17 11 9 11 6 11 8 11 18 21 33 11 10 22 21 42 6 8 17 30 39 39 48 47
Wind_Direction_850mb
266 264 248 247 256 252 249 246 241 243 236 236 236 235 221 212 211 226 271 305 299 293 289 284 259 202 149 129 96 103 59 213 204 160 157 131 109 73 90 111 75 100 122 109 66
263 263 268 274 270 277 266 253 246 239 233 228 225 229 221 204 207 209 313 291 282 287 299 289 244 156 127 116 78 87 146 215 26 1 106 76 106 124 110 98 77 100 110 109 107
292 295 290 283 283 276 273 264 254 242 229 223 216 209 201 180 223 332 328 307 289 277 275 257 165 147 92 87 25 44 117 137 63 110 121 110 87 96 128 75 161 154 127 119 100
313 304 296 293 290 286 273 259 247 236 228 218 213 205 202 196 233 344 347 322 291 292 251 170 161 123 80 93 57 86 58 99 74 116 113 104 123 91 67 117 130 130 124 116 95
330 316 301 301 301 297 285 253 237 232 226 212 202 198 186 190 2 331 329 324 308 245 155 144 128 98 96 92 85 84 118 71 83 102 93 115 86 124 114 132 136 132 129 115 84
355 343 333 332 331 330 339 131 188 200 205 193 189 186 184 137 307 320 330 306 274 243 201 145 113 105 96 60 53 88 98 91 65 77 96 113 133 110 158 150 142 142 133 116 85
2 347 342 351 5 49 75 88 118 149 164 172 176 179 182 183 325 327 339 350 356 184 151 141 133 124 102 93 112 120 80 54 26 25 88 105 63 217 166 163 153 152 141 124 90
360 348 23 57 61 86 87 88 90 94 109 144 156 165 111 159 336 351 358 48 90 108 132 125 124 105 73 113 58 70 66 133 354 4 108 125 253 157 168 169 163 163 156 145 122
354 344 67 105 111 117 101 97 98 101 109 121 138 142 88 63 44 47 67 94 103 108 112 123 127 84 107 88 38 14 211 200 299 22 305 164 239 171 178 182 176 180 177 170 158
349 342 136 147 139 146 125 113 110 108 115 118 125 128 72 25 51 55 86 95 104 117 103 85 58 69 40 79 218 199 214 224 241 354 16 238 253 191 193 195 194 191 189 189 182
329 331 311 172 160 159 157 135 134 100 75 80 61 87 81 79 64 64 107 103 104 83 58 27 76 193 171 67 79 119 149 205 306 346 291 243 263 226 204 208 203 200 199 200 195
281 287 268 201 176 176 174 203 162 141 91 65 69 73 63 51 79 56 86 76 68 71 353 33 96 58 56 55 89 94 125 231 317 345 37 333 270 232 208 216 209 206 206 207 203
260 267 247 201 184 189 197 180 141 133 80 44 47 36 15 28 52 16 42 79 75 71 24 126 113 318 120 46 126 50 187 193 264 320 350 324 278 221 223 212 215 218 220 213 211
272 238 216 174 182 194 193 165 148 158 78 338 359 22 8 64 43 32 49 64 43 121 93 79 326 89 80 82 16 205 118 106 119 83 247 16 282 282 223 224 212 215 216 214 211
301 248 205 194 209 179 174 153 144 138 28 347 360 18 33 69 69 20 28 31 88 110 119 227 68 72 89 39 336 178 140 105 89 99 342 259 359 267 132 235 224 215 213 214 212
295 231 222 198 183 182 159 140 125 45 261 331 322 354 61 36 41 33 65 69 99 80 43 109 64 56 101 59 34 147 75 47 62 74 359 256 164 268 200 215 205 206 213 212 208
215 191 205 205 185 166 162 142 41 121 335 298 352 15 56 19 44 26 18 58 137 67 309 356 113 108 142 90 6 68 65 343 348 8 231 135 142 250 257 228 223 200 206 210 207
177 170 180 190 171 159 156 57 94 252 218 190 107 75 70 357 24 13 60 342 204 114 108 166 304 164 82 121 169 146 139 159 219 218 283 357 240 255 224 267 245 236 222 210 205
177 157 159 155 160 161 159 68 201 198 168 156 91 76 323 353 148 13 197 201 215 165 167 117 279 34 42 74 82 218 189 173 102 85 37 230 286 296 240 265 267 221 206 208 202
176 179 158 154 159 163 78 227 169 188 136 161 147 165 180 251 154 106 189 217 166 139 119 166 13 357 92 95 47 140 194 78 5 224 273 281 281 240 309 309 237 224 211 208 204
176 176 171 155 152 163 160 217 213 197 164 145 175 127 198 191 176 198 242 289 248 126 98 128 115 327 21 207 176 89 287 31 118 151 184 273 263 215 229 324 285 251 235 214 204
187 71 173 162 99 32 144 185 154 160 183 162 107 126 166 155 155 266 222 203 185 156 155 206 133 177 219 313 22 164 194 158 137 245 237 157 267 306 264 291 313 268 230 215 202
193 149 173 179 146 269 295 232 204 145 180 136 157 142 168 177 74 198 212 247 178 155 166 199 269 18 332 348 2 231 208 160 120 110 210 144 267 160 280 293 312 260 223 209 202
182 76 143 189 159 135 145 227 179 200 132 136 137 97 109 172 142 215 220 157 191 192 138 131 87 173 188 202 138 225 250 194 142 136 173 232 298 273 272 276 283 271 227 211 202
188 208 171 211 250 102 78 134 143 190 179 186 85 196 167 149 11 234 155 119 173 208 102 117 200 186 273 230 183 226 185 195 203 207 186 273 227 255 241 251 275 265 234 213 210
189 160 150 112 134 105 353 220 176 177 146 241 180 213 174 165 184 197 146 195 191 68 116 5 232 129 297 282 226 259 185 221 227 237 259 266 275 200 264 265 265 266 237 218 211
204 182 148 146 94 100 218 198 204 156 208 192 179 129 191 231 188 99 154 137 189 151 158 136 137 96 271 337 320 292 206 204 190 204 214 229 252 209 263 235 258 267 246 230 217